Glasgow, United Kingdom

9:39 AM GMT on February 21, 2018 (GMT +0000)
Glasgow

Weather History for EGPF - May, 2013

Change the Weather History Date:

Sunday, May 12, 2013

  Actual Average Record
Temperature  
Mean Temperature 47 °F -  
Max Temperature 53 °F 59 °F 77 °F (2001)
Min Temperature 41 °F 44 °F 35 °F (2005)
Degree Days  
Heating Degree Days 18    
Moisture  
Dew Point 43 °F    
Average Humidity 84    
Maximum Humidity 94    
Minimum Humidity 76    
Precipitation  
Precipitation 0.00 in - - ()
Sea Level Pressure  
Sea Level Pressure 29.71 in    
Wind  
Wind Speed 10 mph ()    
Max Wind Speed 22 mph    
Max Gust Speed 32 mph    
Visibility 5.8 miles    
Events Rain    
Averages and records for this station are not official NWS values.
T = Trace of Precipitation, MM = Missing Value Source: Averaged Metar Reports

Daily Weather History Graph

Daily Weather History Graph

Search for Another Location

Airport or City:

Trip Planner

Search our weather history database for the weather conditions in past years. The results will help you decide how hot, cold, wet, or windy it might be!

Date:

Astronomy

May. 12, 2013 Rise Set
Actual Time 5:11 AM BST 9:18 PM BST
Civil Twilight 4:22 AM BST 10:07 PM BST
Nautical Twilight 3:10 AM BST 11:20 PM BST
Astronomical Twilight 1:46 AM BST 12:41 AM BST
Moon 6:48 AM BST (5/12) 11:40 PM BST (5/12)
Length of Visible Light 17h 44m
Length of Day
16h 07m
Waxing Crescent, 5% of the Moon is Illuminated
May 12
Waxing Crescent
May 18
First Quarter
May 25
Full
May 31
Last Quarter
Jun 8
New

Hourly Weather History & Observations

Time (BST) Temp. Windchill Dew Point Humidity Pressure Visibility Wind Dir Wind Speed Gust Speed Precip Events Conditions
12:20 AM 44.6 °F 42.2 °F 41.0 °F 87% 29.77 in 5.6 mi SSW 4.6 mph - N/A   Mostly Cloudy
12:50 AM 46.4 °F 43.5 °F 42.8 °F 87% 29.77 in 6.2 mi West 5.8 mph - N/A   Mostly Cloudy
1:20 AM 48.2 °F - 42.8 °F 82% 29.77 in 6.2 mi West 10.4 mph - N/A   Mostly Cloudy
1:50 AM 46.4 °F 41.5 °F 41.0 °F 81% 29.77 in 6.2 mi West 10.4 mph - N/A   Mostly Cloudy
2:20 AM 46.4 °F 42.4 °F 41.0 °F 81% 29.77 in 6.2 mi West 8.1 mph - N/A   Mostly Cloudy
2:50 AM 46.4 °F 41.9 °F 42.8 °F 87% 29.80 in 6.2 mi West 9.2 mph - N/A   Overcast
3:20 AM 46.4 °F 42.4 °F 42.8 °F 87% 29.80 in 6.2 mi West 8.1 mph - N/A   Overcast
3:50 AM 46.4 °F 41.9 °F 41.0 °F 81% 29.80 in 6.2 mi West 9.2 mph - N/A   Mostly Cloudy
4:20 AM 46.4 °F 42.4 °F 42.8 °F 87% 29.80 in 6.2 mi WSW 8.1 mph - N/A   Mostly Cloudy
4:50 AM 46.4 °F 41.1 °F 41.0 °F 81% 29.80 in 6.2 mi West 11.5 mph - N/A   Mostly Cloudy
5:20 AM 44.6 °F 39.7 °F 41.0 °F 87% 29.80 in 6.2 mi WSW 9.2 mph - N/A   Mostly Cloudy
5:50 AM 44.6 °F 40.2 °F 41.0 °F 87% 29.80 in 6.2 mi West 8.1 mph - N/A   Scattered Clouds
6:20 AM 46.4 °F 41.1 °F 41.0 °F 81% 29.80 in 6.2 mi WSW 11.5 mph - N/A   Scattered Clouds
6:50 AM 46.4 °F 40.4 °F 41.0 °F 81% 29.80 in 6.2 mi WSW 13.8 mph - N/A   Scattered Clouds
7:20 AM 46.4 °F 41.1 °F 42.8 °F 87% 29.80 in 6.2 mi WSW 11.5 mph - N/A   Mostly Cloudy
7:50 AM 46.4 °F 41.9 °F 42.8 °F 87% 29.80 in 6.2 mi SW 9.2 mph - N/A   Mostly Cloudy
8:20 AM 46.4 °F 41.5 °F 42.8 °F 87% 29.77 in 6.2 mi WSW 10.4 mph - N/A   Mostly Cloudy
8:50 AM 48.2 °F - 42.8 °F 82% 29.77 in 6.2 mi SW 8.1 mph - N/A   Mostly Cloudy
9:20 AM 48.2 °F - 41.0 °F 76% 29.77 in 6.2 mi SW 12.7 mph - N/A   Scattered Clouds
9:50 AM 46.4 °F 40.7 °F 42.8 °F 87% 29.77 in 6.2 mi SW 12.7 mph - N/A Rain Light Rain
10:20 AM 46.4 °F 41.1 °F 42.8 °F 87% 29.77 in 6.2 mi SW 11.5 mph - N/A Rain Light Rain
10:50 AM 46.4 °F 41.9 °F 42.8 °F 87% 29.77 in 5.6 mi SSW 9.2 mph - N/A Rain Light Rain
11:20 AM 46.4 °F 40.7 °F 41.0 °F 81% 29.74 in 6.2 mi SSW 12.7 mph - N/A Rain Light Rain
11:50 AM 48.2 °F - 42.8 °F 82% 29.74 in 6.2 mi SSW 10.4 mph - N/A Rain Light Rain
12:20 PM 48.2 °F - 42.8 °F 82% 29.71 in 6.2 mi South 12.7 mph - N/A Rain Light Rain
12:50 PM 48.2 °F - 44.6 °F 87% 29.71 in 3.7 mi South 10.4 mph - N/A Rain Light Rain
1:20 PM 50.0 °F - 46.4 °F 87% 29.68 in 3.7 mi South 11.5 mph - N/A Rain Light Rain
1:50 PM 50.0 °F - 48.2 °F 94% 29.65 in 3.7 mi SSW 15.0 mph - N/A Rain Light Rain
2:20 PM 50.0 °F - 48.2 °F 94% 29.65 in 4.3 mi SW 19.6 mph - N/A   Light Drizzle
2:50 PM 50.0 °F - 48.2 °F 94% 29.65 in 2.5 mi SW 17.3 mph - N/A   Light Drizzle
3:20 PM 50.0 °F - 48.2 °F 94% 29.62 in 5.0 mi SW 18.4 mph - N/A   Overcast
3:50 PM 51.8 °F - 48.2 °F 88% 29.62 in 2.5 mi SW 20.7 mph - N/A   Light Drizzle
4:20 PM 51.8 °F - 48.2 °F 88% 29.62 in 5.6 mi SW 15.0 mph - N/A Rain Light Rain
4:50 PM 51.8 °F - 48.2 °F 88% 29.62 in 5.6 mi WSW 17.3 mph - N/A Rain Light Rain
5:20 PM 53.6 °F - 48.2 °F 82% 29.59 in 6.2 mi WSW 20.7 mph 32.2 mph N/A Rain Light Rain
5:50 PM 50.0 °F - 46.4 °F 87% 29.59 in 6.2 mi West 21.9 mph - N/A   Mostly Cloudy
6:20 PM 51.8 °F - 46.4 °F 82% 29.59 in 6.2 mi West 19.6 mph - N/A   Scattered Clouds
6:50 PM 51.8 °F - 44.6 °F 76% 29.59 in 6.2 mi WSW 17.3 mph - N/A   Mostly Cloudy
7:20 PM 50.0 °F - 44.6 °F 82% 29.59 in 6.2 mi WSW 19.6 mph - N/A Rain Light Rain
7:50 PM 48.2 °F - 42.8 °F 82% 29.59 in 6.2 mi West 18.4 mph - N/A Rain Light Rain
8:20 PM 46.4 °F 39.8 °F 41.0 °F 81% 29.62 in 6.2 mi WNW 16.1 mph 27.6 mph N/A   Mostly Cloudy
8:50 PM 46.4 °F 40.7 °F 39.2 °F 76% 29.62 in 6.2 mi WSW 12.7 mph - N/A   Scattered Clouds
9:20 PM 46.4 °F 41.1 °F 39.2 °F 76% 29.62 in 6.2 mi WSW 11.5 mph - N/A   Scattered Clouds
9:50 PM 44.6 °F 37.2 °F 39.2 °F 81% 29.62 in 6.2 mi WSW 17.3 mph - N/A   Scattered Clouds
10:20 PM 44.6 °F 38.8 °F 37.4 °F 76% 29.65 in 6.2 mi WSW 11.5 mph - N/A   Mostly Cloudy
10:50 PM 41.0 °F 35.8 °F 37.4 °F 87% 29.65 in 6.2 mi WSW 8.1 mph - N/A   Scattered Clouds
11:20 PM 42.8 °F 36.6 °F 37.4 °F 81% 29.65 in 6.2 mi WSW 11.5 mph - N/A Rain Light Rain
11:50 PM 42.8 °F 37.5 °F 37.4 °F 81% 29.65 in 6.2 mi WSW 9.2 mph - N/A   Mostly Cloudy